This is the latest recevied weather packets stored in our database for station/object NB9X. If no packets are shown the sender has not sent any weather packets the latest 10 day(s).
| Time | Temp. | Humidity | Pressure | Rain* | Wind** | Luminosity | Snow |
|---|---|---|---|---|---|---|---|
| 1777894093 | 18.89° C | 100% | 1015.1 hPa | 0 mm | - | - | - |
| 1777893793 | 18.89° C | 100% | 1015 hPa | 0 mm | - | - | - |
| 1777893493 | 18.33° C | 100% | 1014.9 hPa | 0 mm | - | - | - |
| 1777893193 | 18.33° C | 100% | 1014.9 hPa | 0 mm | - | - | - |
| 1777892893 | 18.33° C | 100% | 1014.9 hPa | 0 mm | - | - | - |
| 1777892593 | 18.33° C | 100% | 1014.9 hPa | 0 mm | - | - | - |
| 1777892293 | 17.78° C | 100% | 1014.8 hPa | 0 mm | - | - | - |
| 1777891993 | 18.33° C | 100% | 1014.8 hPa | 0 mm | - | - | - |
| 1777891693 | 18.33° C | 100% | 1014.8 hPa | 0 mm | - | - | - |
| 1777891393 | 18.33° C | 100% | 1014.8 hPa | 0 mm | - | - | - |
| 1777891093 | 18.33° C | 100% | 1014.7 hPa | 0 mm | - | - | - |
| 1777890793 | 18.33° C | 100% | 1014.8 hPa | 0 mm | - | - | - |
| 1777890637 | 18.33° C | 100% | 1014.6 hPa | 0 mm | - | - | - |
| 1777890493 | 18.33° C | 100% | 1014.7 hPa | 0 mm | - | - | - |
| 1777890193 | 18.33° C | 100% | 1014.7 hPa | 0 mm | - | - | - |
| 1777889893 | 18.33° C | 100% | 1014.7 hPa | 0 mm | - | - | - |
| 1777889593 | 18.33° C | 100% | 1014.6 hPa | 0 mm | - | - | - |
| 1777889293 | 18.33° C | 100% | 1014.6 hPa | 0 mm | - | - | - |
| 1777888993 | 18.89° C | 100% | 1014.6 hPa | 0 mm | - | - | - |
| 1777888693 | 18.89° C | 100% | 1014.6 hPa | 0 mm | - | - | - |
| 1777888393 | 18.89° C | 100% | 1014.6 hPa | 0 mm | - | - | - |
| 1777888093 | 18.89° C | 100% | 1014.5 hPa | 0 mm | - | - | - |
| 1777887793 | 18.89° C | 100% | 1014.5 hPa | 0 mm | - | - | - |
| 1777887493 | 19.44° C | 100% | 1014.4 hPa | 0 mm | - | - | - |
| 1777887194 | 19.44° C | 100% | 1014.4 hPa | 0 mm | - | - | - |
* Rain latest hour (hover to see other rain measurements)
** Current wind speed in m/s (hover to see current wind gust speed)